K4DFD-13 Weather Reports


time (UTC)temp
C
wind
direction
speed
KPH
gust
KPH
rain 1hr
cm
rain 24hr
cm
rain mn
cm
humidity
%
barometer
mb
20260504100411 6 197 1.6 1.6 0.00 0.00 0.00 76 1016.5
20260504081843 6 0 0.0 0.0 0.00 0.00 0.00 71 1016.5
20260504081343 6 0 0.0 0.0 0.00 0.00 0.00 71 1016.6
20260504080902 6 0 0.0 0.0 0.00 0.00 0.00 71 1016.6
20260504080402 6 0 0.0 0.0 0.00 0.00 0.00 72 1016.5
20260504070343 6 0 0.0 0.0 0.00 0.00 0.00 67 1016.9
20260504050329 10 263 3.2 4.8 0.00 0.00 0.00 53 1017.0
20260504045829 10 270 3.2 4.8 0.00 0.00 0.00 53 1017.0
20260504045333 10 263 4.8 6.4 0.00 0.00 0.00 53 1016.9
20260504044831 9 252 1.6 3.2 0.00 0.00 0.00 53 1016.9
20260504044326 9 308 1.6 3.2 0.00 0.00 0.00 53 1016.9
20260504043826 9 198 0.0 3.2 0.00 0.00 0.00 53 1016.8
20260504043326 9 244 3.2 3.2 0.00 0.00 0.00 53 1016.8
20260504042826 9 286 0.0 3.2 0.00 0.00 0.00 53 1016.8
20260504042325 9 234 3.2 4.8 0.00 0.00 0.00 53 1016.7
20260504041825 9 241 1.6 3.2 0.00 0.00 0.00 53 1016.7
20260504041332 10 273 1.6 4.8 0.00 0.00 0.00 52 1016.7
20260504040824 10 268 1.6 3.2 0.00 0.00 0.00 52 1016.6
20260504040324 10 219 1.6 4.8 0.00 0.00 0.00 52 1016.6
20260504035824 10 243 1.6 4.8 0.00 0.00 0.00 52 1016.6
20260504035323 10 227 1.6 3.2 0.00 0.00 0.00 51 1016.6
20260504034823 10 205 3.2 3.2 0.00 0.00 0.00 52 1016.7
20260504034330 10 221 1.6 3.2 0.00 0.00 0.00 51 1016.8
20260504033822 10 206 3.2 4.8 0.00 0.00 0.00 51 1016.9
20260504033342 10 222 0.0 1.6 0.00 0.00 0.00 50 1016.9
20260504032841 10 230 3.2 3.2 0.00 0.00 0.00 50 1017.0
20260504032321 10 258 1.6 3.2 0.00 0.00 0.00 51 1016.9
20260504031821 10 220 1.6 3.2 0.00 0.00 0.00 50 1016.8
20260504031320 10 209 3.2 4.8 0.00 0.00 0.00 50 1016.8
20260504030820 10 237 3.2 4.8 0.00 0.00 0.00 51 1016.8
20260504030321 10 196 3.2 3.2 0.00 0.00 0.00 49 1016.7
20260504025819 10 233 0.0 1.6 0.00 0.00 0.00 50 1016.9
20260504025319 9 275 1.6 3.2 0.00 0.00 0.00 51 1017.0
20260504024838 10 307 0.0 1.6 0.00 0.00 0.00 51 1017.0
20260504024318 10 201 3.2 3.2 0.00 0.00 0.00 51 1016.9
20260504023818 10 199 3.2 3.2 0.00 0.00 0.00 50 1016.9
20260504023337 10 195 1.6 3.2 0.00 0.00 0.00 50 1017.0
20260504022816 10 194 1.6 3.2 0.00 0.00 0.00 49 1016.9
20260504022316 10 250 1.6 3.2 0.00 0.00 0.00 49 1017.0
20260504021816 10 270 1.6 3.2 0.00 0.00 0.00 49 1017.0
20260504021315 10 241 3.2 4.8 0.00 0.00 0.00 49 1017.0
20260504020815 10 253 1.6 4.8 0.00 0.00 0.00 48 1017.0
20260504020314 10 248 4.8 6.4 0.00 0.00 0.00 48 1017.0
20260504015814 11 251 4.8 8.0 0.00 0.00 0.00 47 1016.9
20260504015612 11 230 3.2 4.8 0.00 0.00 0.00 47 1016.8
20260504015115 11 239 0.0 3.2 0.00 0.00 0.00 47 1016.8
20260504014612 11 256 3.2 3.2 0.00 0.00 0.00 47 1016.6
20260504014112 11 207 4.8 6.4 0.00 0.00 0.00 46 1016.4
20260504013610 11 215 3.2 6.4 0.00 0.00 0.00 46 1016.2
20260504013110 11 238 4.8 9.7 0.00 0.00 0.00 46 1016.4
20260504012610 11 245 4.8 8.0 0.00 0.00 0.00 46 1016.5
20260504012109 11 247 3.2 8.0 0.00 0.00 0.00 45 1016.6
20260504011609 11 248 4.8 6.4 0.00 0.00 0.00 45 1016.5
20260504011108 11 253 6.4 14.5 0.00 0.00 0.00 45 1016.4
20260504010608 11 252 4.8 11.3 0.00 0.00 0.00 45 1016.4
20260504010128 12 239 3.2 6.4 0.00 0.00 0.00 44 1016.3
20260504005607 12 242 4.8 6.4 0.00 0.00 0.00 44 1016.2
20260504005107 12 228 3.2 6.4 0.00 0.00 0.00 43 1016.1
20260504004608 12 236 3.2 4.8 0.00 0.00 0.00 43 1016.2
20260504004107 12 233 4.8 9.7 0.00 0.00 0.00 42 1016.1
20260504003606 12 250 4.8 6.4 0.00 0.00 0.00 42 1016.0
20260504003113 12 223 6.4 9.7 0.00 0.00 0.00 41 1015.8
20260504002605 13 221 6.4 9.7 0.00 0.00 0.00 40 1015.8
20260504002105 13 227 4.8 9.7 0.00 0.00 0.00 40 1016.0
20260504001608 13 237 8.0 12.9 0.00 0.00 0.00 40 1016.0
20260504001121 13 232 6.4 9.7 0.00 0.00 0.00 40 1015.8
20260504000604 13 208 4.8 6.4 0.00 0.00 0.00 40 1015.6
20260504000103 13 231 6.4 9.7 0.00 0.00 0.00 39 1015.7
20260503235603 13 226 6.4 11.3 0.00 0.00 0.00 39 1015.8
20260503235103 14 233 4.8 8.0 0.00 0.00 0.00 39 1015.8
20260503234602 14 235 6.4 11.3 0.00 0.00 0.00 38 1015.8
20260503234122 14 257 3.2 8.0 0.00 0.00 0.00 38 1015.8
20260503233601 14 233 9.7 17.7 0.00 0.00 0.00 37 1015.7
20260503233101 15 234 6.4 12.9 0.00 0.00 0.00 37 1015.7
20260503232608 15 244 3.2 8.0 0.00 0.00 0.00 36 1015.7
20260503232100 15 217 4.8 8.0 0.00 0.00 0.00 36 1015.7
20260503231559 15 222 6.4 9.7 0.00 0.00 0.00 35 1015.6
20260503231103 15 231 8.0 12.9 0.00 0.00 0.00 35 1015.5
20260503230558 16 207 11.3 14.5 0.00 0.00 0.00 35 1015.5
20260503230058 16 256 8.0 12.9 0.00 0.00 0.00 35 1015.5
20260503225558 16 224 8.0 11.3 0.00 0.00 0.00 34 1015.4
20260503225057 16 238 8.0 16.1 0.00 0.00 0.00 33 1015.4
20260503224557 16 251 11.3 17.7 0.00 0.00 0.00 31 1015.4
20260503224056 16 263 6.4 11.3 0.00 0.00 0.00 30 1015.4
20260503223556 16 256 6.4 12.9 0.00 0.00 0.00 31 1015.5
20260503223056 16 320 6.4 9.7 0.00 0.00 0.00 30 1015.4
20260503222556 16 280 8.0 11.3 0.00 0.00 0.00 30 1015.4
20260503222055 16 290 8.0 11.3 0.00 0.00 0.00 30 1015.4
20260503221600 16 255 6.4 9.7 0.00 0.00 0.00 30 1015.5
20260503221054 16 249 3.2 8.0 0.00 0.00 0.00 31 1015.5
20260503220554 16 314 4.8 8.0 0.00 0.00 0.00 30 1015.5
20260503220105 16 31 1.6 4.8 0.00 0.00 0.00 32 1015.6
20260503215553 16 250 11.3 17.7 0.00 0.00 0.00 30 1015.5
20260503215053 16 291 3.2 6.4 0.00 0.00 0.00 30 1015.6
20260503214613 16 229 4.8 6.4 0.00 0.00 0.00 31 1015.6
20260503214052 16 304 6.4 9.7 0.00 0.00 0.00 28 1015.7
20260503213612 16 322 6.4 9.7 0.00 0.00 0.00 29 1015.7
20260503213058 16 296 9.7 14.5 0.00 0.00 0.00 29 1015.7
20260503212551 16 249 6.4 11.3 0.00 0.00 0.00 30 1015.7
20260503212057 16 245 3.2 9.7 0.00 0.00 0.00 29 1015.7
20260503211557 16 309 4.8 11.3 0.00 0.00 0.00 30 1015.8
20260503211049 15 294 6.4 11.3 0.00 0.00 0.00 31 1015.8
20260503210549 16 278 8.0 12.9 0.00 0.00 0.00 31 1016.0
20260503210108 16 269 4.8 9.7 0.00 0.00 0.00 31 1016.0
20260503205548 16 273 9.7 17.7 0.00 0.00 0.00 30 1015.8
20260503205047 16 248 8.0 14.5 0.00 0.00 0.00 31 1016.0
20260503204547 16 273 8.0 16.1 0.00 0.00 0.00 31 1015.8
20260503204106 16 319 6.4 12.9 0.00 0.00 0.00 31 1016.1
20260503203606 16 233 3.2 3.2 0.00 0.00 0.00 31 1016.1
20260503203045 16 246 8.0 12.9 0.00 0.00 0.00 31 1016.1
20260503202605 15 339 3.2 6.4 0.00 0.00 0.00 32 1016.3
20260503202105 15 296 8.0 16.1 0.00 0.00 0.00 31 1016.4
20260503201604 15 305 3.2 8.0 0.00 0.00 0.00 32 1016.3
20260503201044 15 194 1.6 4.8 0.00 0.00 0.00 32 1016.5
20260503200543 15 262 4.8 9.7 0.00 0.00 0.00 32 1016.6
20260503195603 15 277 8.0 16.1 0.00 0.00 0.00 31 1016.7
20260503195042 15 226 11.3 14.5 0.00 0.00 0.00 32 1016.7
20260503194602 15 299 3.2 6.4 0.00 0.00 0.00 33 1016.7
20260503194101 16 261 8.0 17.7 0.00 0.00 0.00 31 1016.7
20260503193601 15 14 4.8 8.0 0.00 0.00 0.00 35 1016.8
20260503193040 15 201 3.2 8.0 0.00 0.00 0.00 35 1016.9
20260503192540 15 268 6.4 12.9 0.00 0.00 0.00 33 1017.1
20260503192100 15 298 9.7 14.5 0.00 0.00 0.00 34 1017.2
20260503191546 15 252 8.0 12.9 0.00 0.00 0.00 34 1017.2
20260503191059 14 300 3.2 6.4 0.00 0.00 0.00 36 1017.2
20260503190539 14 314 4.8 9.7 0.00 0.00 0.00 36 1017.2
20260503190058 15 235 11.3 14.5 0.00 0.00 0.00 33 1017.3
20260503185558 15 254 4.8 9.7 0.00 0.00 0.00 35 1017.3
20260503185057 14 284 4.8 12.9 0.00 0.00 0.00 35 1017.3
20260503184543 14 359 4.8 9.7 0.00 0.00 0.00 36 1017.3
20260503184036 13 276 6.4 12.9 0.00 0.00 0.00 34 1017.5
20260503183535 13 298 8.0 11.3 0.00 0.00 0.00 32 1017.7
20260503183035 13 259 8.0 11.3 0.00 0.00 0.00 34 1017.7
20260503182535 13 281 9.7 14.5 0.00 0.00 0.00 33 1017.7
20260503182034 13 32 3.2 4.8 0.00 0.00 0.00 36 1017.8
20260503181537 13 240 8.0 14.5 0.00 0.00 0.00 34 1017.9
20260503181033 13 290 8.0 11.3 0.00 0.00 0.00 35 1018.1
20260503180533 13 269 8.0 12.9 0.00 0.00 0.00 35 1018.1
20260503180033 13 316 9.7 12.9 0.00 0.00 0.00 35 1018.1
20260503175532 13 217 4.8 9.7 0.00 0.00 0.00 35 1018.1
20260503175032 13 252 8.0 14.5 0.00 0.00 0.00 37 1018.3
20260503174532 13 346 1.6 3.2 0.00 0.00 0.00 38 1018.1
20260503174031 12 219 6.4 9.7 0.00 0.00 0.00 37 1018.2
20260503173551 12 273 8.0 11.3 0.00 0.00 0.00 39 1018.3
20260503173031 12 242 8.0 14.5 0.00 0.00 0.00 37 1018.2
20260503172530 12 301 12.9 17.7 0.00 0.00 0.00 37 1018.4
20260503172030 11 12 3.2 8.0 0.00 0.00 0.00 42 1018.4
20260503171530 11 73 3.2 6.4 0.00 0.00 0.00 40 1018.5
20260503171029 11 213 4.8 8.0 0.00 0.00 0.00 37 1018.6
20260503170529 12 57 3.2 4.8 0.00 0.00 0.00 37 1018.6
20260503150520 9 47 4.8 8.0 0.00 0.00 0.00 46 1019.4
20260503131012 6 326 4.8 9.7 0.00 0.00 0.00 51 1019.2
20260503130511 6 306 8.0 12.9 0.00 0.00 0.00 52 1019.2
20260503110501 2 35 3.2 3.2 0.00 0.00 0.00 69 1018.5